[[{"header":{"parameterUnit":"m.s-1","parameterCategory":1,"la1":30.2991,"la2":30.254,"lo1":-89.0895,"lo2":-89.0444,"dy":0.0017,"dx":0.0017,"nx":28,"ny":28,"refTime":"2024-04-29T21:00:00:Z","depth":0,"parameterNumber":2,"parameterNumberName":"U-component_of_WINDS"},"data":[0,0,0,0,0,0,0,0,0,0,0,0,0,0,0,0,0,0,0,0,0,0,0,0,0,0,0,0,0,0,0,0,0,0,0,0,0,0,0,0,0,0,0,0,0,0,0,0,0,0,0,0,0,0,0,0,0,0,-1.2493,-1.2493,0,-1.2485,-1.2485,-1.2484,-1.2459,-1.2458,-1.2458,-1.2457,-1.2447,-1.2447,-1.2448,0,0,0,0,0,0,0,0,0,0,0,0,0,-1.2485,-1.2486,-1.2493,-1.2493,-1.2493,-1.2485,-1.2485,-1.2484,-1.2459,-1.2458,-1.2457,-1.2457,-1.2447,-1.2447,-1.2448,0,0,0,0,0,0,0,0,0,0,0,0,0,-1.2484,-1.2486,-1.2493,-1.2479,-1.2478,-1.2485,-1.2485,-1.2484,-1.2459,-1.2458,-1.2457,-1.2456,-1.2447,-1.2447,-1.2448,-1.2467,0,0,-1.2449,-1.2449,0,0,0,0,0,0,0,0,-1.2484,-1.2484,-1.2481,-1.248,-1.2479,-1.2472,-1.2478,-1.2479,-1.2459,-1.2466,-1.2457,-1.2456,-1.2456,-1.2456,-1.2456,-1.2467,-1.2466,-1.2449,-1.2449,-1.2449,-1.2449,0,0,0,0,0,0,0,-1.2484,-1.2485,-1.249,-1.2481,-1.248,-1.2473,-1.2472,-1.2478,-1.2466,-1.2465,-1.2464,-1.2463,-1.2455,-1.2455,-1.2455,-1.2466,-1.2449,-1.2449,-1.2449,-1.245,-1.249,-1.2491,0,0,0,0,0,0,-1.2487,-1.2485,-1.249,-1.249,-1.2479,-1.2474,-1.2472,-1.2475,-1.2466,-1.2463,-1.2464,-1.2462,-1.2455,-1.2455,-1.2455,-1.2476,-1.2449,-1.245,-1.245,-1.2489,-1.249,-1.2491,0,0,0,0,0,0,-1.2487,-1.2487,-1.249,-1.2487,-1.2487,-1.2475,-1.2478,-1.2475,-1.2476,-1.2464,-1.2462,-1.2466,-1.2454,-1.2454,-1.2464,-1.2475,-1.245,-1.245,-1.2488,-1.249,-1.2491,-1.2518,0,0,0,0,0,0,-1.2486,-1.2488,-1.2495,-1.2487,-1.2487,-1.25,-1.2479,-1.2476,-1.2476,-1.2474,-1.2466,-1.2464,-1.2454,-1.2463,-1.2464,-1.2475,-1.245,-1.2487,-1.2489,-1.249,-1.2516,-1.252,-1.2524,0,0,0,0,0,-1.2486,-1.2504,-1.2496,-1.2497,-1.2497,-1.2501,-1.2501,-1.2489,-1.2478,-1.2485,-1.2477,-1.2464,-1.2474,-1.2465,-1.2465,-1.2476,-1.2486,-1.2488,-1.249,-1.2514,-1.2519,-1.2523,0,0,0,0,0,0,-1.2514,-1.2502,-1.2494,-1.2509,-1.2506,-1.2497,-1.2506,-1.2495,-1.2495,-1.2492,-1.2477,-1.2475,-1.2487,-1.2483,-1.2473,-1.2494,-1.2478,-1.248,-1.2496,-1.2501,-1.2504,-1.2505,-1.2451,0,0,0,0,0,-1.2521,-1.2527,-1.2516,-1.2531,-1.253,-1.2518,-1.252,-1.251,-1.2507,-1.2505,-1.2499,-1.2495,-1.2497,-1.2499,-1.25,-1.2515,-1.2512,-1.2523,-1.2527,-1.253,-1.2532,-1.2538,-1.2542,-1.2497,-1.2497,-1.2497,0,0,-1.2538,-1.2532,-1.2536,-1.2536,-1.2533,-1.2537,-1.2517,-1.2524,-1.2527,-1.2506,-1.2514,-1.2509,-1.2504,-1.2516,-1.2522,-1.2513,-1.2544,-1.2532,-1.2535,-1.2535,-1.254,-1.2545,-1.2548,-1.2499,-1.2498,-1.2498,0,0,-1.2569,-1.2566,-1.2577,-1.2574,-1.2569,-1.2561,-1.2564,-1.2556,-1.2551,-1.256,-1.2544,-1.2547,-1.2551,-1.2547,-1.2546,-1.2575,-1.2563,-1.2576,-1.2595,-1.2601,-1.2605,-1.2608,-1.2617,-1.262,-1.2578,-1.2578,-1.2578,0,-1.259,-1.2597,-1.2584,-1.2591,-1.2591,-1.2572,-1.2582,-1.258,-1.2576,-1.2576,-1.2567,-1.257,-1.2566,-1.2576,-1.2583,-1.2583,-1.2584,-1.2577,-1.2605,-1.2608,-1.2611,-1.2619,-1.2623,-1.2579,-1.2579,-1.2579,-1.2579,0,-1.2622,-1.2627,-1.2636,-1.2632,-1.2633,-1.2642,-1.2629,-1.2631,-1.2622,-1.2614,-1.2622,-1.2615,-1.2614,-1.2616,-1.2607,-1.2625,-1.262,-1.2608,-1.2592,-1.2617,-1.2624,-1.2628,-1.2582,-1.2581,-1.2581,-1.258,0,0,-1.2671,-1.2659,-1.2662,-1.266,-1.2652,-1.2656,-1.2663,-1.2662,-1.2663,-1.2661,-1.2665,-1.2669,-1.2658,-1.2656,-1.2646,-1.2652,-1.2673,-1.264,-1.2639,-1.2645,-1.269,-1.2698,-1.2702,-1.2665,-1.2666,-1.2666,-1.269,0,-1.27,-1.2712,-1.2699,-1.2713,-1.2717,-1.2699,-1.2705,-1.2701,-1.2694,-1.2695,-1.2687,-1.2689,-1.2675,-1.2674,-1.2678,-1.267,-1.2682,-1.2668,-1.2668,-1.2669,-1.2669,-1.2707,-1.2715,-1.2738,-1.2693,-1.2694,-1.2694,0,-1.2735,-1.2734,-1.2748,-1.2739,-1.274,-1.2746,-1.2743,-1.2745,-1.2739,-1.2733,-1.2731,-1.2719,-1.2724,-1.2708,-1.2714,-1.2705,-1.2704,-1.27,-1.2701,-1.27,-1.2682,-1.2705,-1.2746,-1.2749,-1.2699,-1.2699,-1.2698,0,-1.2768,-1.277,-1.2778,-1.2777,-1.2766,-1.277,-1.2766,-1.2759,-1.2759,-1.2756,-1.2756,-1.2754,-1.2752,-1.2751,-1.2738,-1.2728,-1.2745,-1.2729,-1.2739,-1.2739,-1.2743,-1.2743,-1.2783,-1.2744,-1.2744,-1.2744,-1.2744,0,-1.2801,-1.281,-1.2793,-1.2798,-1.2807,-1.2792,-1.2802,-1.2795,-1.2789,-1.2792,-1.2776,-1.2779,-1.2763,-1.2763,-1.2753,-1.2759,-1.2759,-1.2753,-1.275,-1.2754,-1.2755,-1.2753,-1.2751,-1.2745,-1.2745,-1.2745,-1.2745,0,-1.2839,-1.2828,-1.2836,-1.2825,-1.2822,-1.2829,-1.2819,-1.2823,-1.2814,-1.2818,-1.2818,-1.2804,-1.2804,-1.2791,-1.2789,-1.2782,-1.2791,-1.2786,-1.2793,-1.2791,-1.2802,-1.28,-1.2841,-1.2845,-1.2805,-1.2806,-1.2806,0,-1.2861,-1.2867,-1.2857,-1.2858,-1.2854,-1.2856,-1.2855,-1.284,-1.284,-1.2833,-1.2837,-1.2836,-1.2834,-1.2834,-1.2823,-1.2821,-1.2814,-1.2829,-1.2814,-1.2817,-1.2813,-1.2812,-1.2812,-1.2832,-1.2832,-1.2833,-1.2833,0,-1.29,-1.2894,-1.2893,-1.2891,-1.2891,-1.2888,-1.2884,-1.2885,-1.2869,-1.287,-1.2869,-1.2868,-1.2864,-1.2862,-1.2857,-1.2852,-1.2839,-1.2838,-1.284,-1.2843,-1.2847,-1.2844,-1.28,-1.2837,-1.2836,-1.2836,-1.2836,-1.2836,-1.2929,-1.2934,-1.2927,-1.2926,-1.2922,-1.2919,-1.2921,-1.2912,-1.2912,-1.2908,-1.2899,-1.29,-1.2892,-1.2884,-1.288,-1.2879,-1.2872,-1.2875,-1.2876,-1.2877,-1.2878,-1.2848,-1.2878,-1.2878,-1.2878,-1.2878,-1.2878,0,-1.2966,-1.2961,-1.2961,-1.2956,-1.2955,-1.2944,-1.2939,-1.2939,-1.2939,-1.2934,-1.2932,-1.293,-1.2928,-1.2917,-1.2913,-1.2915,-1.2908,-1.2914,-1.2913,-1.2912,-1.2886,-1.2884,-1.2919,-1.2919,-1.2919,-1.2919,-1.2919,-1.2919,-1.2986,-1.2992,-1.2984,-1.2988,-1.2982,-1.2982,-1.298,-1.2976,-1.2971,-1.297,-1.2968,-1.2961,-1.2953,-1.2948,-1.2945,-1.2941,-1.294,-1.2947,-1.2942,-1.2918,-1.2914,-1.291,-1.2908,-1.2948,-1.2948,-1.2968,-1.2968,-1.2968]},{"header":{"parameterUnit":"m.s-1","parameterCategory":1,"la1":30.2991,"la2":30.254,"lo1":-89.0895,"lo2":-89.0444,"dy":0.0017,"dx":0.0017,"nx":28,"ny":28,"refTime":"2024-04-29T21:00:00:Z","depth":0,"parameterNumber":3,"parameterNumberName":"V-component_of_WINDS"},"data":[0,0,0,0,0,0,0,0,0,0,0,0,0,0,0,0,0,0,0,0,0,0,0,0,0,0,0,0,0,0,0,0,0,0,0,0,0,0,0,0,0,0,0,0,0,0,0,0,0,0,0,0,0,0,0,0,0,0,-0.433,-0.4328,0,-0.4127,-0.4125,-0.4123,-0.404,-0.4041,-0.4041,-0.4042,-0.3825,-0.3818,-0.3812,0,0,0,0,0,0,0,0,0,0,0,0,0,-0.4636,-0.4631,-0.4331,-0.4328,-0.4326,-0.4128,-0.4125,-0.4122,-0.404,-0.4041,-0.4042,-0.4042,-0.3827,-0.3819,-0.3812,0,0,0,0,0,0,0,0,0,0,0,0,0,-0.4475,-0.4629,-0.4331,-0.4261,-0.4253,-0.4128,-0.4125,-0.4121,-0.404,-0.4041,-0.4042,-0.4042,-0.3829,-0.382,-0.3811,-0.3738,0,0,-0.3782,-0.3778,0,0,0,0,0,0,0,0,-0.4484,-0.4464,-0.4274,-0.4266,-0.4256,-0.411,-0.4153,-0.3992,-0.404,-0.4121,-0.4042,-0.4043,-0.3918,-0.3902,-0.3862,-0.3728,-0.3718,-0.3781,-0.3776,-0.3771,-0.3769,0,0,0,0,0,0,0,-0.4495,-0.4472,-0.425,-0.4271,-0.426,-0.4236,-0.4214,-0.4122,-0.4017,-0.4114,-0.4107,-0.4085,-0.3914,-0.3871,-0.3856,-0.3715,-0.3781,-0.3773,-0.3767,-0.3764,-0.3505,-0.3504,0,0,0,0,0,0,-0.452,-0.4482,-0.4256,-0.4244,-0.4375,-0.423,-0.4205,-0.4156,-0.4018,-0.3998,-0.4084,-0.4082,-0.3887,-0.3867,-0.3848,-0.3751,-0.3772,-0.3763,-0.3757,-0.3507,-0.3505,-0.3504,0,0,0,0,0,0,-0.4527,-0.45,-0.4264,-0.4361,-0.4329,-0.4224,-0.4169,-0.4152,-0.4109,-0.3996,-0.3976,-0.4061,-0.3886,-0.3861,-0.3765,-0.3742,-0.3759,-0.375,-0.3508,-0.3506,-0.3504,-0.3558,0,0,0,0,0,0,-0.4536,-0.4503,-0.4478,-0.4361,-0.4324,-0.4189,-0.4168,-0.4147,-0.4094,-0.4089,-0.3969,-0.395,-0.3885,-0.378,-0.3756,-0.3729,-0.3743,-0.351,-0.3507,-0.3505,-0.3558,-0.3558,-0.3558,0,0,0,0,0,-0.4547,-0.45,-0.4477,-0.445,-0.4291,-0.4188,-0.4167,-0.4096,-0.4093,-0.4064,-0.3991,-0.3953,-0.3749,-0.3771,-0.3743,-0.3714,-0.3511,-0.3508,-0.3505,-0.3557,-0.3558,-0.3558,0,0,0,0,0,0,-0.4614,-0.4483,-0.4457,-0.4371,-0.4292,-0.4175,-0.4136,-0.4099,-0.4017,-0.4015,-0.3928,-0.3901,-0.3812,-0.3753,-0.378,-0.3633,-0.3626,-0.3618,-0.3675,-0.3675,-0.3675,-0.3691,-0.3735,0,0,0,0,0,-0.4619,-0.455,-0.4438,-0.4373,-0.4335,-0.4243,-0.4195,-0.4148,-0.4061,-0.4026,-0.3946,-0.386,-0.3775,-0.3722,-0.3638,-0.3548,-0.3518,-0.3514,-0.3514,-0.3515,-0.3508,-0.3452,-0.3448,-0.3495,-0.3495,-0.3495,0,0,-0.4628,-0.4549,-0.451,-0.4385,-0.4318,-0.4244,-0.4215,-0.414,-0.4083,-0.4013,-0.3918,-0.3856,-0.3754,-0.366,-0.3614,-0.3608,-0.3489,-0.3511,-0.3513,-0.3506,-0.3449,-0.3445,-0.3441,-0.3493,-0.3493,-0.3493,0,0,-0.4608,-0.4542,-0.448,-0.4413,-0.4312,-0.425,-0.4235,-0.4123,-0.408,-0.3983,-0.3929,-0.3858,-0.3716,-0.3644,-0.3589,-0.3538,-0.3498,-0.3512,-0.3514,-0.346,-0.3456,-0.3453,-0.3431,-0.3425,-0.3506,-0.3506,-0.3506,0,-0.4632,-0.4523,-0.4451,-0.4378,-0.4323,-0.4258,-0.4191,-0.4129,-0.4005,-0.3966,-0.3961,-0.3779,-0.3706,-0.3592,-0.358,-0.3538,-0.3515,-0.3526,-0.3464,-0.3459,-0.3454,-0.3433,-0.3425,-0.3509,-0.3508,-0.3508,-0.3508,0,-0.4555,-0.448,-0.4441,-0.4325,-0.4265,-0.4196,-0.4109,-0.4056,-0.4012,-0.395,-0.385,-0.3759,-0.3655,-0.3624,-0.358,-0.3503,-0.3501,-0.3481,-0.3472,-0.3453,-0.3432,-0.3423,-0.3512,-0.3511,-0.351,-0.351,0,0,-0.4574,-0.4418,-0.4404,-0.4349,-0.4232,-0.417,-0.4095,-0.3995,-0.395,-0.3865,-0.3798,-0.3677,-0.3657,-0.3594,-0.3541,-0.3494,-0.3455,-0.3478,-0.3474,-0.3475,-0.336,-0.3375,-0.3367,-0.3428,-0.3427,-0.3425,-0.3367,0,-0.4536,-0.4404,-0.4335,-0.423,-0.4157,-0.4093,-0.4026,-0.3945,-0.3883,-0.3809,-0.3739,-0.3654,-0.3635,-0.3597,-0.3547,-0.3471,-0.343,-0.3474,-0.3361,-0.3358,-0.3388,-0.3356,-0.3373,-0.3323,-0.3359,-0.3357,-0.3356,0,-0.4476,-0.4394,-0.4283,-0.4171,-0.4137,-0.408,-0.3981,-0.3912,-0.3815,-0.3773,-0.3703,-0.365,-0.3563,-0.3561,-0.3438,-0.347,-0.3418,-0.3373,-0.3369,-0.3355,-0.3356,-0.3339,-0.3306,-0.3298,-0.3343,-0.3344,-0.3345,0,-0.4498,-0.4359,-0.4274,-0.4229,-0.4097,-0.4057,-0.3999,-0.3904,-0.3847,-0.3759,-0.372,-0.3622,-0.3568,-0.3491,-0.3411,-0.3418,-0.3295,-0.3287,-0.3254,-0.3256,-0.3231,-0.3234,-0.3187,-0.3201,-0.3201,-0.3201,-0.3201,0,-0.4463,-0.4397,-0.4282,-0.423,-0.4151,-0.407,-0.3994,-0.393,-0.3845,-0.3776,-0.3713,-0.3648,-0.3547,-0.3468,-0.3405,-0.3311,-0.3287,-0.3247,-0.3231,-0.3252,-0.3257,-0.3217,-0.3218,-0.3199,-0.3199,-0.32,-0.32,0,-0.4475,-0.4396,-0.4298,-0.4181,-0.4149,-0.4096,-0.3993,-0.3937,-0.3871,-0.3784,-0.3758,-0.3654,-0.3557,-0.347,-0.3341,-0.3298,-0.3201,-0.3182,-0.3235,-0.3226,-0.3197,-0.3201,-0.3123,-0.3107,-0.3133,-0.3133,-0.3133,0,-0.4458,-0.4406,-0.4282,-0.4233,-0.4177,-0.4097,-0.4039,-0.3955,-0.3896,-0.378,-0.3737,-0.3636,-0.3552,-0.3399,-0.3309,-0.3209,-0.3185,-0.3164,-0.317,-0.3191,-0.3182,-0.3186,-0.3178,-0.3165,-0.3165,-0.3165,-0.3166,0,-0.4435,-0.4398,-0.4319,-0.4224,-0.4156,-0.4077,-0.3995,-0.3957,-0.3857,-0.3793,-0.3695,-0.3629,-0.3497,-0.3396,-0.3286,-0.3221,-0.3175,-0.3165,-0.3151,-0.3172,-0.3204,-0.3184,-0.3235,-0.3167,-0.3167,-0.3167,-0.3167,-0.3166,-0.443,-0.438,-0.4284,-0.4196,-0.4126,-0.405,-0.3991,-0.3918,-0.3836,-0.3724,-0.3678,-0.3577,-0.3477,-0.3324,-0.3259,-0.3176,-0.3167,-0.3148,-0.3143,-0.3139,-0.3142,-0.3219,-0.3155,-0.3155,-0.3155,-0.3155,-0.3155,0,-0.4403,-0.4338,-0.4258,-0.4146,-0.4075,-0.4041,-0.3947,-0.3889,-0.3803,-0.3714,-0.3632,-0.3516,-0.3417,-0.3319,-0.3213,-0.3165,-0.3141,-0.314,-0.3142,-0.3126,-0.3157,-0.3179,-0.3161,-0.3161,-0.3161,-0.3161,-0.3161,-0.3161,-0.438,-0.4291,-0.4242,-0.4115,-0.4049,-0.3953,-0.3902,-0.3829,-0.3758,-0.3634,-0.3552,-0.3489,-0.3394,-0.3281,-0.3187,-0.3159,-0.3122,-0.3127,-0.3094,-0.3124,-0.3125,-0.3125,-0.3145,-0.312,-0.312,-0.3069,-0.3069,-0.3069]}]]